User: anonymous   Login
Location: Treviso
(45.6669°N, 12.2430°E)
Time: 08:00:47
(UTC+02:00)
Language:

ITUPSAT 1 - Orbit

View from above orbital plane
View from above orbital plane
View from above satellite
View from above satellite

Ground track
Ground track

The orbit data is extracted from the following two-line orbital elements,

1 35935U 09051E   19114.45625086  .00000080  00000-0  29681-4 0  9990
2 35935  98.5963 280.8025 0007823 353.7905   6.3193 14.55520376508603
Epoch (UTC): 24 April 2019 10:57:00
Eccentricity: 0.0007823
inclination: 98.5963°
perigee height: 702 km
apogee height: 713 km
right ascension of ascending node: 280.8025°
argument of perigee: 353.7905°
revolutions per day: 14.55520376
mean anomaly at epoch: 6.3193°
orbit number at epoch: 50860

The dashed part of the orbit path shows where the satellite is in the earth's shadow,  

DLR